Location: Arpaise
(41.0333°N, 14.7333°E)
Time: 01:35:05
(UTC+00:00)

Helios 1A - Pass Details

Date: 05 July 2020
Orbit: 587 x 600 km, 98.2° (Epoch: 07 August)

Event Time Altitude Azimuth Distance (km) Brightness Sun altitude
Exits shadow 23:24:57 41° 305° (NW) 853 3.9 -26.1°
Drops below altitude 10° 23:28:02 10° 337° (NNW) 1,920 6.4 -26.1°
Sets 23:30:15 0° 342° (NNW) 2,826 7.5 -26.1°
